Terminal Aerodrome Forecast
Issued by NWS Columbia, SC

Home | Current Version | Previous Version | Text Only | Print | Product List | Glossary On
Versions: 1 2 3 4 5 6 7 8 9 10 11 12 13 14 15 16 17 18 19 20 21 22 23 24 25 26 27 28 29 30 31 32 33 34 35 36 37 38 39 40 41
000
FTUS42 KCAE 311000 AAB
TAFAGS
TAF AMD
KAGS 311002Z 3110/0106 00000KT P6SM SKC
      TEMPO 3110/3112 1SM BR
     FM312000 28005KT P6SM BKN050
     FM010400 30010KT P6SM BKN050=

USA.gov is the U.S. government's official web portal to all federal, state and local government web resources and services.